This is the latest recevied weather packets stored in our database for station/object KI6SYE. If no packets are shown the sender has not sent any weather packets the latest 10 day(s).
| Time | Temp. | Humidity | Pressure | Rain* | Wind** | Luminosity | Snow |
|---|---|---|---|---|---|---|---|
| 1777929733 | 17.78° C | 80% | 1015.9 hPa | 0 mm | - | 285 W/m² | - |
| 1777929431 | 17.78° C | 77% | 1015.9 hPa | 0 mm | - | 497 W/m² | - |
| 1777929127 | 17.78° C | 78% | 1015.9 hPa | 0 mm | - | 421 W/m² | - |
| 1777928825 | 17.78° C | 77% | 1016.1 hPa | 0 mm | - | 429 W/m² | - |
| 1777928521 | 17.78° C | 76% | 1015.9 hPa | 0 mm | - | 456 W/m² | - |
| 1777928218 | 18.33° C | 76% | 1016 hPa | 0 mm | - | 432 W/m² | - |
| 1777927915 | 18.33° C | 76% | 1015.8 hPa | 0 mm | - | 726 W/m² | - |
| 1777927614 | 17.78° C | 77% | 1015.7 hPa | 0 mm | - | 507 W/m² | - |
| 1777927313 | 18.33° C | 76% | 1015.6 hPa | 0 mm | - | 536 W/m² | - |
| 1777927011 | 17.78° C | 75% | 1015.8 hPa | 0 mm | - | 600 W/m² | - |
| 1777926709 | 17.78° C | 77% | 1015.7 hPa | 0 mm | - | 690 W/m² | - |
| 1777926409 | 17.78° C | 78% | 1015.7 hPa | 0 mm | - | 635 W/m² | - |
| 1777926106 | 17.78° C | 77% | 1015.9 hPa | 0 mm | - | 587 W/m² | - |
| 1777925803 | 18.33° C | 76% | 1016 hPa | 0 mm | - | 659 W/m² | - |
| 1777925501 | 17.78° C | 77% | 1016 hPa | 0 mm | - | 620 W/m² | - |
| 1777925197 | 17.78° C | 76% | 1015.8 hPa | 0 mm | - | 439 W/m² | - |
| 1777924894 | 17.78° C | 76% | 1015.9 hPa | 0 mm | - | 564 W/m² | - |
| 1777924590 | 17.78° C | 76% | 1016 hPa | 0 mm | - | 699 W/m² | - |
| 1777924286 | 17.78° C | 77% | 1016.2 hPa | 0 mm | - | 720 W/m² | - |
| 1777923983 | 17.78° C | 76% | 1016 hPa | 0 mm | - | 579 W/m² | - |
| 1777923679 | 17.78° C | 75% | 1016 hPa | 0 mm | - | 872 W/m² | - |
| 1777923375 | 17.22° C | 77% | 1016 hPa | 0 mm | - | 839 W/m² | - |
| 1777923074 | 17.78° C | 75% | 1016.2 hPa | 0 mm | - | 436 W/m² | - |
| 1777922772 | 17.78° C | 74% | 1016.1 hPa | 0 mm | - | 850 W/m² | - |
| 1777922470 | 17.78° C | 76% | 1016.1 hPa | 0 mm | - | 853 W/m² | - |
* Rain latest hour (hover to see other rain measurements)
** Current wind speed in m/s (hover to see current wind gust speed)